Data supplied by UK-AIR on 28/3/2018
All Data GMT hour ending 
Status: R =Ratified P=Provisional,P*=As supplied
,,Swansea Roadside,,,,,,,,,,,,,,,,,,,,,,,
Date,time,"PM<sub>10</sub> particulate matter (Hourly measured)",status,unit,"Nitric oxide",status,unit,"Nitrogen dioxide",status,unit,"Nitrogen oxides as nitrogen dioxide",status,unit,"PM<sub>2.5</sub> particulate matter (Hourly measured)",status,unit
 
01-01-2017,01:00,27.374,R,ugm-3 (Ref.eq),1.76285,R,ugm-3,7.06860,R,ugm-3,9.77160,R,ugm-3,17.470,R,ugm-3 (BAM)
01-01-2017,02:00,20.866,R,ugm-3 (Ref.eq),3.33528,R,ugm-3,8.60880,R,ugm-3,13.72282,R,ugm-3,10.150,R,ugm-3 (BAM)
01-01-2017,03:00,16.391,R,ugm-3 (Ref.eq),2.82326,R,ugm-3,6.07075,R,ugm-3,10.39970,R,ugm-3,10.390,R,ugm-3 (BAM)
01-01-2017,04:00,17.608,R,ugm-3 (Ref.eq),4.21681,R,ugm-3,11.74705,R,ugm-3,18.21274,R,ugm-3,10.630,R,ugm-3 (BAM)
01-01-2017,05:00,20.866,R,ugm-3 (Ref.eq),1.85817,R,ugm-3,7.28137,R,ugm-3,10.13051,R,ugm-3,11.120,R,ugm-3 (BAM)
01-01-2017,06:00,14.966,R,ugm-3 (Ref.eq),1.25073,R,ugm-3,3.03992,R,ugm-3,4.95768,R,ugm-3,9.900,R,ugm-3 (BAM)
01-01-2017,07:00,1.942,R,ugm-3 (Ref.eq),0.39321,R,ugm-3,2.41453,R,ugm-3,3.01745,R,ugm-3,6.480,R,ugm-3 (BAM)
01-01-2017,08:00,2.758,R,ugm-3 (Ref.eq),0.57189,R,ugm-3,3.59598,R,ugm-3,4.47286,R,ugm-3,5.510,R,ugm-3 (BAM)
01-01-2017,09:00,4.183,R,ugm-3 (Ref.eq),0.71470,R,ugm-3,3.96939,R,ugm-3,5.06526,R,ugm-3,6.000,R,ugm-3 (BAM)
01-01-2017,10:00,4.183,R,ugm-3 (Ref.eq),0.75056,R,ugm-3,2.35190,R,ugm-3,3.50274,R,ugm-3,4.040,R,ugm-3 (BAM)
01-01-2017,11:00,3.775,R,ugm-3 (Ref.eq),0.89338,R,ugm-3,3.37269,R,ugm-3,4.74252,R,ugm-3,3.800,R,ugm-3 (BAM)
01-01-2017,12:00,4.591,R,ugm-3 (Ref.eq),1.21518,R,ugm-3,7.02748,R,ugm-3,8.89073,R,ugm-3,4.770,R,ugm-3 (BAM)
01-01-2017,13:00,5.608,R,ugm-3 (Ref.eq),1.21487,R,ugm-3,8.37532,R,ugm-3,10.23809,R,ugm-3,5.750,R,ugm-3 (BAM)
01-01-2017,14:00,5.200,R,ugm-3 (Ref.eq),1.21487,R,ugm-3,7.78244,R,ugm-3,9.64522,R,ugm-3,6.970,R,ugm-3 (BAM)
01-01-2017,15:00,4.183,R,ugm-3 (Ref.eq),1.21518,R,ugm-3,6.32703,R,ugm-3,8.19028,R,ugm-3,7.950,R,ugm-3 (BAM)
01-01-2017,16:00,4.591,R,ugm-3 (Ref.eq),2.10794,R,ugm-3,11.37125,R,ugm-3,14.60337,R,ugm-3,7.950,R,ugm-3 (BAM)
01-01-2017,17:00,8.050,R,ugm-3 (Ref.eq),1.53699,R,ugm-3,10.30646,R,ugm-3,12.66314,R,ugm-3,6.000,R,ugm-3 (BAM)
01-01-2017,18:00,11.100,R,ugm-3 (Ref.eq),1.07174,R,ugm-3,9.40328,R,ugm-3,11.04660,R,ugm-3,8.440,R,ugm-3 (BAM)
01-01-2017,19:00,8.658,R,ugm-3 (Ref.eq),0.92924,R,ugm-3,7.51995,R,ugm-3,8.94476,R,ugm-3,10.390,R,ugm-3 (BAM)
01-01-2017,20:00,6.016,R,ugm-3 (Ref.eq),1.21518,R,ugm-3,7.99760,R,ugm-3,9.86085,R,ugm-3,7.460,R,ugm-3 (BAM)
01-01-2017,21:00,7.033,R,ugm-3 (Ref.eq),1.42941,R,ugm-3,8.96245,R,ugm-3,11.15418,R,ugm-3,5.260,R,ugm-3 (BAM)
01-01-2017,22:00,8.458,R,ugm-3 (Ref.eq),1.53667,R,ugm-3,11.76188,R,ugm-3,14.11808,R,ugm-3,5.750,R,ugm-3 (BAM)
01-01-2017,23:00,7.441,R,ugm-3 (Ref.eq),1.32214,R,ugm-3,7.88763,R,ugm-3,9.91488,R,ugm-3,5.750,R,ugm-3 (BAM)
01-01-2017,24:00,7.841,R,ugm-3 (Ref.eq),1.00065,R,ugm-3,6.54840,R,ugm-3,8.08270,R,ugm-3,6.970,R,ugm-3 (BAM)
02-01-2017,01:00,7.841,R,ugm-3 (Ref.eq),0.76252,R,ugm-3,6.74093,R,ugm-3,7.91010,R,ugm-3,9.660,R,ugm-3 (BAM)
02-01-2017,02:00,7.233,R,ugm-3 (Ref.eq),0.89338,R,ugm-3,5.10207,R,ugm-3,6.47190,R,ugm-3,8.930,R,ugm-3 (BAM)
02-01-2017,03:00,9.266,R,ugm-3 (Ref.eq),0.96510,R,ugm-3,4.72292,R,ugm-3,6.20272,R,ugm-3,9.660,R,ugm-3 (BAM)
02-01-2017,04:00,8.858,R,ugm-3 (Ref.eq),1.57222,R,ugm-3,6.70379,R,ugm-3,9.11450,R,ugm-3,11.370,R,ugm-3 (BAM)
02-01-2017,05:00,9.066,R,ugm-3 (Ref.eq),0.78611,R,ugm-3,4.18790,R,ugm-3,5.39325,R,ugm-3,9.660,R,ugm-3 (BAM)
02-01-2017,06:00,15.166,R,ugm-3 (Ref.eq),2.89467,R,ugm-3,10.17785,R,ugm-3,14.61628,R,ugm-3,10.390,R,ugm-3 (BAM)
02-01-2017,07:00,14.558,R,ugm-3 (Ref.eq),1.00065,R,ugm-3,5.80061,R,ugm-3,7.33492,R,ugm-3,11.370,R,ugm-3 (BAM)
02-01-2017,08:00,17.408,R,ugm-3 (Ref.eq),1.28659,R,ugm-3,8.76021,R,ugm-3,10.73295,R,ugm-3,11.860,R,ugm-3 (BAM)
02-01-2017,09:00,15.374,R,ugm-3 (Ref.eq),7.61165,R,ugm-3,26.29735,R,ugm-3,37.96838,R,ugm-3,11.120,R,ugm-3 (BAM)
02-01-2017,10:00,14.358,R,ugm-3 (Ref.eq),2.35833,R,ugm-3,13.96603,R,ugm-3,17.58209,R,ugm-3,8.440,R,ugm-3 (BAM)
02-01-2017,11:00,18.016,R,ugm-3 (Ref.eq),23.04948,R,ugm-3,26.62630,R,ugm-3,61.96835,R,ugm-3,8.930,R,ugm-3 (BAM)
02-01-2017,12:00,13.949,R,ugm-3 (Ref.eq),8.21940,R,ugm-3,18.78601,R,ugm-3,31.38891,R,ugm-3,11.610,R,ugm-3 (BAM)
02-01-2017,13:00,16.183,R,ugm-3 (Ref.eq),6.96804,R,ugm-3,18.38534,R,ugm-3,29.06952,R,ugm-3,12.100,R,ugm-3 (BAM)
02-01-2017,14:00,17.608,R,ugm-3 (Ref.eq),11.50697,R,ugm-3,17.52041,R,ugm-3,35.16418,R,ugm-3,31.140,R,ugm-3 (BAM)
02-01-2017,15:00,18.016,R,ugm-3 (Ref.eq),13.82944,R,ugm-3,15.52328,R,ugm-3,36.72813,R,ugm-3,8.190,R,ugm-3 (BAM)
02-01-2017,16:00,16.591,R,ugm-3 (Ref.eq),18.36774,R,ugm-3,34.18259,R,ugm-3,62.34607,R,ugm-3,15.760,R,ugm-3 (BAM)
02-01-2017,17:00,22.699,R,ugm-3 (Ref.eq),76.54493,R,ugm-3,79.80958,R,ugm-3,197.17684,R,ugm-3,15.030,R,ugm-3 (BAM)
02-01-2017,18:00,18.833,R,ugm-3 (Ref.eq),129.61131,R,ugm-3,94.06488,R,ugm-3,292.79945,R,ugm-3,16.250,R,ugm-3 (BAM)
02-01-2017,19:00,22.899,R,ugm-3 (Ref.eq),88.48034,R,ugm-3,69.11345,R,ugm-3,204.78142,R,ugm-3,29.190,R,ugm-3 (BAM)
02-01-2017,20:00,43.248,R,ugm-3 (Ref.eq),91.08907,R,ugm-3,82.47991,R,ugm-3,222.14787,R,ugm-3,47.260,R,ugm-3 (BAM)
02-01-2017,21:00,27.982,R,ugm-3 (Ref.eq),104.84710,R,ugm-3,74.48996,R,ugm-3,235.25328,R,ugm-3,29.430,R,ugm-3 (BAM)
02-01-2017,22:00,31.040,R,ugm-3 (Ref.eq),92.84028,R,ugm-3,62.37475,R,ugm-3,204.72787,R,ugm-3,32.360,R,ugm-3 (BAM)
02-01-2017,23:00,29.815,R,ugm-3 (Ref.eq),171.67151,R,ugm-3,67.97312,R,ugm-3,331.19910,R,ugm-3,32.850,R,ugm-3 (BAM)
02-01-2017,24:00,28.191,R,ugm-3 (Ref.eq),96.44903,R,ugm-3,54.84572,R,ugm-3,202.73217,R,ugm-3,32.610,R,ugm-3 (BAM)
03-01-2017,01:00,28.391,R,ugm-3 (Ref.eq),72.82028,R,ugm-3,49.27875,R,ugm-3,160.93496,R,ugm-3,30.650,R,ugm-3 (BAM)
03-01-2017,02:00,17.408,R,ugm-3 (Ref.eq),28.07641,R,ugm-3,41.89379,R,ugm-3,84.94369,R,ugm-3,14.540,R,ugm-3 (BAM)
03-01-2017,03:00,12.325,R,ugm-3 (Ref.eq),18.45536,R,ugm-3,34.64159,R,ugm-3,62.93942,R,ugm-3,14.540,R,ugm-3 (BAM)
03-01-2017,04:00,17.408,R,ugm-3 (Ref.eq),35.19413,R,ugm-3,36.53497,R,ugm-3,90.49854,R,ugm-3,13.560,R,ugm-3 (BAM)
03-01-2017,05:00,17.199,R,ugm-3 (Ref.eq),29.97200,R,ugm-3,30.35807,R,ugm-3,76.31449,R,ugm-3,15.520,R,ugm-3 (BAM)
03-01-2017,06:00,14.358,R,ugm-3 (Ref.eq),26.39567,R,ugm-3,34.81706,R,ugm-3,75.28987,R,ugm-3,15.030,R,ugm-3 (BAM)
03-01-2017,07:00,11.300,R,ugm-3 (Ref.eq),43.27726,R,ugm-3,44.79744,R,ugm-3,111.15498,R,ugm-3,8.680,R,ugm-3 (BAM)
03-01-2017,08:00,16.591,R,ugm-3 (Ref.eq),131.51282,R,ugm-3,56.79456,R,ugm-3,258.44473,R,ugm-3,21.380,R,ugm-3 (BAM)
03-01-2017,09:00,14.966,R,ugm-3 (Ref.eq),124.25197,R,ugm-3,61.50935,R,ugm-3,252.02638,R,ugm-3,19.670,R,ugm-3 (BAM)
03-01-2017,10:00,19.849,R,ugm-3 (Ref.eq),109.08699,R,ugm-3,66.58656,R,ugm-3,233.85094,R,ugm-3,20.160,R,ugm-3 (BAM)
03-01-2017,11:00,12.525,R,ugm-3 (Ref.eq),31.18811,R,ugm-3,48.98725,R,ugm-3,96.80836,R,ugm-3,9.900,R,ugm-3 (BAM)
03-01-2017,12:00,15.783,R,ugm-3 (Ref.eq),25.10815,R,ugm-3,40.99826,R,ugm-3,79.49689,R,ugm-3,10.630,R,ugm-3 (BAM)
03-01-2017,13:00,18.833,R,ugm-3 (Ref.eq),27.57562,R,ugm-3,46.32936,R,ugm-3,88.61138,R,ugm-3,11.860,R,ugm-3 (BAM)
03-01-2017,14:00,18.216,R,ugm-3 (Ref.eq),22.28239,R,ugm-3,35.08338,R,ugm-3,69.24923,R,ugm-3,12.340,R,ugm-3 (BAM)
03-01-2017,15:00,13.133,R,ugm-3 (Ref.eq),12.76861,R,ugm-3,35.10872,R,ugm-3,54.68698,R,ugm-3,7.700,R,ugm-3 (BAM)
03-01-2017,16:00,10.283,R,ugm-3 (Ref.eq),10.19325,R,ugm-3,40.35279,R,ugm-3,55.98222,R,ugm-3,5.510,R,ugm-3 (BAM)
03-01-2017,17:00,11.100,R,ugm-3 (Ref.eq),7.61820,R,ugm-3,38.85339,R,ugm-3,50.53447,R,ugm-3,10.390,R,ugm-3 (BAM)
03-01-2017,18:00,13.541,R,ugm-3 (Ref.eq),11.19514,R,ugm-3,47.93108,R,ugm-3,65.09672,R,ugm-3,10.150,R,ugm-3 (BAM)
03-01-2017,19:00,14.149,R,ugm-3 (Ref.eq),4.50650,R,ugm-3,35.91245,R,ugm-3,42.82231,R,ugm-3,9.170,R,ugm-3 (BAM)
03-01-2017,20:00,7.441,R,ugm-3 (Ref.eq),2.64646,R,ugm-3,20.48192,R,ugm-3,24.53977,R,ugm-3,11.370,R,ugm-3 (BAM)
03-01-2017,21:00,7.641,R,ugm-3 (Ref.eq),1.89558,R,ugm-3,16.50918,R,ugm-3,19.41570,R,ugm-3,9.660,R,ugm-3 (BAM)
03-01-2017,22:00,9.066,R,ugm-3 (Ref.eq),1.64550,R,ugm-3,12.63206,R,ugm-3,15.15513,R,ugm-3,7.460,R,ugm-3 (BAM)
03-01-2017,23:00,13.341,R,ugm-3 (Ref.eq),1.35893,R,ugm-3,11.88475,R,ugm-3,13.96842,R,ugm-3,8.930,R,ugm-3 (BAM)
03-01-2017,24:00,12.525,R,ugm-3 (Ref.eq),1.21612,R,ugm-3,10.97153,R,ugm-3,12.83622,R,ugm-3,9.660,R,ugm-3 (BAM)
04-01-2017,01:00,6.416,R,ugm-3 (Ref.eq),1.05023,R,ugm-3,6.52226,R,ugm-3,8.13259,R,ugm-3,7.700,R,ugm-3 (BAM)
04-01-2017,02:00,5.808,R,ugm-3 (Ref.eq),0.33428,R,ugm-3,3.01410,R,ugm-3,3.52665,R,ugm-3,10.390,R,ugm-3 (BAM)
04-01-2017,03:00,8.658,R,ugm-3 (Ref.eq),0.60837,R,ugm-3,2.63017,R,ugm-3,3.56299,R,ugm-3,12.100,R,ugm-3 (BAM)
04-01-2017,04:00,14.966,R,ugm-3 (Ref.eq),0.71595,R,ugm-3,4.24623,R,ugm-3,5.34400,R,ugm-3,8.930,R,ugm-3 (BAM)
04-01-2017,05:00,13.741,R,ugm-3 (Ref.eq),1.10979,R,ugm-3,5.42385,R,ugm-3,7.12550,R,ugm-3,8.930,R,ugm-3 (BAM)
04-01-2017,06:00,7.841,R,ugm-3 (Ref.eq),1.53917,R,ugm-3,7.14032,R,ugm-3,9.50034,R,ugm-3,7.700,R,ugm-3 (BAM)
04-01-2017,07:00,9.883,R,ugm-3 (Ref.eq),2.93521,R,ugm-3,15.84984,R,ugm-3,20.35043,R,ugm-3,7.950,R,ugm-3 (BAM)
04-01-2017,08:00,8.658,R,ugm-3 (Ref.eq),5.29791,R,ugm-3,25.23639,R,ugm-3,33.35974,R,ugm-3,8.680,R,ugm-3 (BAM)
04-01-2017,09:00,7.641,R,ugm-3 (Ref.eq),9.70088,R,ugm-3,39.42953,R,ugm-3,54.30400,R,ugm-3,7.460,R,ugm-3 (BAM)
04-01-2017,10:00,13.541,R,ugm-3 (Ref.eq),10.41714,R,ugm-3,35.20100,R,ugm-3,51.17372,R,ugm-3,8.680,R,ugm-3 (BAM)
04-01-2017,11:00,17.608,R,ugm-3 (Ref.eq),7.58920,R,ugm-3,29.55004,R,ugm-3,41.18664,R,ugm-3,11.610,R,ugm-3 (BAM)
04-01-2017,12:00,13.741,R,ugm-3 (Ref.eq),8.62726,R,ugm-3,30.33368,R,ugm-3,43.56197,R,ugm-3,14.050,R,ugm-3 (BAM)
04-01-2017,13:00,11.508,R,ugm-3 (Ref.eq),11.06168,R,ugm-3,34.69801,R,ugm-3,51.65902,R,ugm-3,11.860,R,ugm-3 (BAM)
04-01-2017,14:00,15.574,R,ugm-3 (Ref.eq),15.07081,R,ugm-3,39.56293,R,ugm-3,62.67119,R,ugm-3,17.710,R,ugm-3 (BAM)
04-01-2017,15:00,7.441,R,ugm-3 (Ref.eq),4.22429,R,ugm-3,20.56655,R,ugm-3,27.04371,R,ugm-3,9.660,R,ugm-3 (BAM)
04-01-2017,16:00,9.066,R,ugm-3 (Ref.eq),2.43411,R,ugm-3,17.48168,R,ugm-3,21.21393,R,ugm-3,8.190,R,ugm-3 (BAM)
04-01-2017,17:00,14.358,R,ugm-3 (Ref.eq),8.08999,R,ugm-3,42.76350,R,ugm-3,55.16798,R,ugm-3,7.460,R,ugm-3 (BAM)
04-01-2017,18:00,18.016,R,ugm-3 (Ref.eq),22.26618,R,ugm-3,64.42734,R,ugm-3,98.56834,R,ugm-3,10.150,R,ugm-3 (BAM)
04-01-2017,19:00,31.240,R,ugm-3 (Ref.eq),71.30877,R,ugm-3,87.41990,R,ugm-3,196.75848,R,ugm-3,24.310,R,ugm-3 (BAM)
04-01-2017,20:00,25.749,R,ugm-3 (Ref.eq),86.55857,R,ugm-3,85.30515,R,ugm-3,218.02643,R,ugm-3,19.180,R,ugm-3 (BAM)
04-01-2017,21:00,19.241,R,ugm-3 (Ref.eq),8.05475,R,ugm-3,43.84311,R,ugm-3,56.19355,R,ugm-3,21.620,R,ugm-3 (BAM)
04-01-2017,22:00,19.641,R,ugm-3 (Ref.eq),18.72197,R,ugm-3,48.91697,R,ugm-3,77.62359,R,ugm-3,12.100,R,ugm-3 (BAM)
04-01-2017,23:00,23.507,R,ugm-3 (Ref.eq),23.84089,R,ugm-3,54.29301,R,ugm-3,90.84853,R,ugm-3,13.320,R,ugm-3 (BAM)
04-01-2017,24:00,15.166,R,ugm-3 (Ref.eq),7.98303,R,ugm-3,29.00067,R,ugm-3,41.24115,R,ugm-3,13.320,R,ugm-3 (BAM)
05-01-2017,01:00,13.133,R,ugm-3 (Ref.eq),5.48895,R,ugm-3,28.53896,R,ugm-3,36.95524,R,ugm-3,10.880,R,ugm-3 (BAM)
05-01-2017,02:00,28.799,R,ugm-3 (Ref.eq),5.26236,R,ugm-3,26.18499,R,ugm-3,34.25383,R,ugm-3,31.390,R,ugm-3 (BAM)
05-01-2017,03:00,16.591,R,ugm-3 (Ref.eq),8.91352,R,ugm-3,38.03771,R,ugm-3,51.70492,R,ugm-3,15.030,R,ugm-3 (BAM)
05-01-2017,04:00,15.166,R,ugm-3 (Ref.eq),5.19033,R,ugm-3,23.54001,R,ugm-3,31.49840,R,ugm-3,12.830,R,ugm-3 (BAM)
05-01-2017,05:00,11.708,R,ugm-3 (Ref.eq),8.59109,R,ugm-3,32.37289,R,ugm-3,45.54571,R,ugm-3,11.860,R,ugm-3 (BAM)
05-01-2017,06:00,11.100,R,ugm-3 (Ref.eq),19.76004,R,ugm-3,36.96671,R,ugm-3,67.26502,R,ugm-3,11.860,R,ugm-3 (BAM)
05-01-2017,07:00,15.783,R,ugm-3 (Ref.eq),51.83467,R,ugm-3,51.70157,R,ugm-3,131.18029,R,ugm-3,10.150,R,ugm-3 (BAM)
05-01-2017,08:00,20.458,R,ugm-3 (Ref.eq),180.06148,R,ugm-3,83.46676,R,ugm-3,359.55717,R,ugm-3,17.470,R,ugm-3 (BAM)
05-01-2017,09:00,25.949,R,ugm-3 (Ref.eq),224.80836,R,ugm-3,116.15856,R,ugm-3,460.85991,R,ugm-3,24.060,R,ugm-3 (BAM)
05-01-2017,10:00,21.682,R,ugm-3 (Ref.eq),176.33860,R,ugm-3,107.49063,R,ugm-3,377.87271,R,ugm-3,15.520,R,ugm-3 (BAM)
05-01-2017,11:00,18.216,R,ugm-3 (Ref.eq),123.21484,R,ugm-3,83.53704,R,ugm-3,272.46383,R,ugm-3,16.010,R,ugm-3 (BAM)
05-01-2017,12:00,,,,,,,,,,,,,,,
05-01-2017,13:00,,,,84.73283,R,ugm-3,89.64844,R,ugm-3,219.57030,R,ugm-3,18.200,R,ugm-3 (BAM)
05-01-2017,14:00,,,,65.79601,R,ugm-3,84.16052,R,ugm-3,185.04633,R,ugm-3,20.640,R,ugm-3 (BAM)
05-01-2017,15:00,,,,65.83156,R,ugm-3,77.51458,R,ugm-3,178.45490,R,ugm-3,18.940,R,ugm-3 (BAM)
05-01-2017,16:00,,,,73.02692,R,ugm-3,83.17654,R,ugm-3,195.14959,R,ugm-3,14.540,R,ugm-3 (BAM)
05-01-2017,17:00,,,,79.82845,R,ugm-3,90.36084,R,ugm-3,212.76276,R,ugm-3,13.810,R,ugm-3 (BAM)
05-01-2017,18:00,,,,98.98043,R,ugm-3,88.54923,R,ugm-3,240.31710,R,ugm-3,15.270,R,ugm-3 (BAM)
05-01-2017,19:00,,,,101.41422,R,ugm-3,94.81267,R,ugm-3,250.31230,R,ugm-3,15.520,R,ugm-3 (BAM)
05-01-2017,20:00,,,,48.82774,R,ugm-3,84.46078,R,ugm-3,159.32894,R,ugm-3,17.230,R,ugm-3 (BAM)
05-01-2017,21:00,,,,50.51004,R,ugm-3,76.26237,R,ugm-3,153.71002,R,ugm-3,18.200,R,ugm-3 (BAM)
05-01-2017,22:00,,,,24.73614,R,ugm-3,72.01901,R,ugm-3,109.94723,R,ugm-3,21.860,R,ugm-3 (BAM)
05-01-2017,23:00,,,,18.39986,R,ugm-3,63.68912,R,ugm-3,91.90184,R,ugm-3,24.800,R,ugm-3 (BAM)
05-01-2017,24:00,,,,11.16895,R,ugm-3,52.67886,R,ugm-3,69.80434,R,ugm-3,23.090,R,ugm-3 (BAM)
06-01-2017,01:00,28.191,R,ugm-3 (Ref.eq),5.82281,R,ugm-3,48.77385,R,ugm-3,57.70204,R,ugm-3,18.200,R,ugm-3 (BAM)
06-01-2017,02:00,39.582,R,ugm-3 (Ref.eq),3.25732,R,ugm-3,45.41375,R,ugm-3,50.40824,R,ugm-3,22.600,R,ugm-3 (BAM)
06-01-2017,03:00,30.832,R,ugm-3 (Ref.eq),7.73201,R,ugm-3,51.46538,R,ugm-3,63.32096,R,ugm-3,26.500,R,ugm-3 (BAM)
06-01-2017,04:00,46.498,R,ugm-3 (Ref.eq),5.58416,R,ugm-3,48.32935,R,ugm-3,56.89162,R,ugm-3,21.860,R,ugm-3 (BAM)
06-01-2017,05:00,24.524,R,ugm-3 (Ref.eq),5.65619,R,ugm-3,33.95548,R,ugm-3,42.62819,R,ugm-3,20.890,R,ugm-3 (BAM)
06-01-2017,06:00,22.899,R,ugm-3 (Ref.eq),14.39041,R,ugm-3,37.47400,R,ugm-3,59.53899,R,ugm-3,13.320,R,ugm-3 (BAM)
06-01-2017,07:00,14.149,R,ugm-3 (Ref.eq),6.12144,R,ugm-3,17.57396,R,ugm-3,26.96003,R,ugm-3,11.860,R,ugm-3 (BAM)
06-01-2017,08:00,21.882,R,ugm-3 (Ref.eq),22.69556,R,ugm-3,41.00209,R,ugm-3,75.80146,R,ugm-3,10.150,R,ugm-3 (BAM)
06-01-2017,09:00,21.474,R,ugm-3 (Ref.eq),41.20300,R,ugm-3,43.85267,R,ugm-3,107.02972,R,ugm-3,16.490,R,ugm-3 (BAM)
06-01-2017,10:00,27.982,R,ugm-3 (Ref.eq),26.95571,R,ugm-3,35.44245,R,ugm-3,76.77397,R,ugm-3,16.010,R,ugm-3 (BAM)
06-01-2017,11:00,24.524,R,ugm-3 (Ref.eq),18.90096,R,ugm-3,33.04322,R,ugm-3,62.02429,R,ugm-3,12.340,R,ugm-3 (BAM)
06-01-2017,12:00,23.107,R,ugm-3 (Ref.eq),27.92206,R,ugm-3,41.63273,R,ugm-3,84.44596,R,ugm-3,13.080,R,ugm-3 (BAM)
06-01-2017,13:00,21.682,R,ugm-3 (Ref.eq),22.08688,R,ugm-3,37.99133,R,ugm-3,71.85741,R,ugm-3,18.200,R,ugm-3 (BAM)
06-01-2017,14:00,15.166,R,ugm-3 (Ref.eq),24.77169,R,ugm-3,41.54667,R,ugm-3,79.52940,R,ugm-3,11.610,R,ugm-3 (BAM)
06-01-2017,15:00,15.374,R,ugm-3 (Ref.eq),32.14635,R,ugm-3,56.49668,R,ugm-3,105.78707,R,ugm-3,12.590,R,ugm-3 (BAM)
06-01-2017,16:00,11.708,R,ugm-3 (Ref.eq),50.86832,R,ugm-3,66.85239,R,ugm-3,144.84940,R,ugm-3,11.610,R,ugm-3 (BAM)
06-01-2017,17:00,10.691,R,ugm-3 (Ref.eq),78.07412,R,ugm-3,75.43761,R,ugm-3,195.14959,R,ugm-3,11.860,R,ugm-3 (BAM)
06-01-2017,18:00,12.525,R,ugm-3 (Ref.eq),63.61199,R,ugm-3,77.02785,R,ugm-3,174.56487,R,ugm-3,14.050,R,ugm-3 (BAM)
06-01-2017,19:00,10.491,R,ugm-3 (Ref.eq),24.34231,R,ugm-3,42.09699,R,ugm-3,79.42134,R,ugm-3,13.320,R,ugm-3 (BAM)
06-01-2017,20:00,10.083,R,ugm-3 (Ref.eq),5.54830,R,ugm-3,12.34758,R,ugm-3,20.85486,R,ugm-3,10.630,R,ugm-3 (BAM)
06-01-2017,21:00,7.641,R,ugm-3 (Ref.eq),2.46965,R,ugm-3,9.18000,R,ugm-3,12.96675,R,ugm-3,7.700,R,ugm-3 (BAM)
06-01-2017,22:00,4.791,R,ugm-3 (Ref.eq),2.93521,R,ugm-3,8.03393,R,ugm-3,12.53453,R,ugm-3,8.440,R,ugm-3 (BAM)
06-01-2017,23:00,14.966,R,ugm-3 (Ref.eq),1.61058,R,ugm-3,5.36456,R,ugm-3,7.83408,R,ugm-3,9.900,R,ugm-3 (BAM)
06-01-2017,24:00,4.183,R,ugm-3 (Ref.eq),1.39604,R,ugm-3,4.07267,R,ugm-3,6.21323,R,ugm-3,9.900,R,ugm-3 (BAM)
07-01-2017,01:00,4.791,R,ugm-3 (Ref.eq),1.19325,R,ugm-3,3.86134,R,ugm-3,5.69096,R,ugm-3,7.460,R,ugm-3 (BAM)
07-01-2017,02:00,5.000,R,ugm-3 (Ref.eq),1.00241,R,ugm-3,3.72173,R,ugm-3,5.25874,R,ugm-3,6.730,R,ugm-3 (BAM)
07-01-2017,03:00,4.591,R,ugm-3 (Ref.eq),0.71595,R,ugm-3,9.54577,R,ugm-3,10.64354,R,ugm-3,8.190,R,ugm-3 (BAM)
07-01-2017,04:00,5.608,R,ugm-3 (Ref.eq),2.72067,R,ugm-3,26.35425,R,ugm-3,30.52589,R,ugm-3,8.930,R,ugm-3 (BAM)
07-01-2017,05:00,7.641,R,ugm-3 (Ref.eq),0.68009,R,ugm-3,11.38368,R,ugm-3,12.42647,R,ugm-3,12.100,R,ugm-3 (BAM)
07-01-2017,06:00,8.050,R,ugm-3 (Ref.eq),1.07393,R,ugm-3,13.26510,R,ugm-3,14.91176,R,ugm-3,13.320,R,ugm-3 (BAM)
07-01-2017,07:00,6.216,R,ugm-3 (Ref.eq),1.75402,R,ugm-3,16.49053,R,ugm-3,19.17998,R,ugm-3,9.900,R,ugm-3 (BAM)
07-01-2017,08:00,6.416,R,ugm-3 (Ref.eq),5.19064,R,ugm-3,32.18403,R,ugm-3,40.14290,R,ugm-3,15.030,R,ugm-3 (BAM)
07-01-2017,09:00,9.475,R,ugm-3 (Ref.eq),18.50744,R,ugm-3,49.09866,R,ugm-3,77.47633,R,ugm-3,15.760,R,ugm-3 (BAM)
07-01-2017,10:00,15.166,R,ugm-3 (Ref.eq),43.31499,R,ugm-3,51.96023,R,ugm-3,118.37562,R,ugm-3,15.270,R,ugm-3 (BAM)
07-01-2017,11:00,18.624,R,ugm-3 (Ref.eq),42.77802,R,ugm-3,52.24328,R,ugm-3,117.83534,R,ugm-3,19.910,R,ugm-3 (BAM)
07-01-2017,12:00,16.391,R,ugm-3 (Ref.eq),29.56881,R,ugm-3,49.48116,R,ugm-3,94.81936,R,ugm-3,15.270,R,ugm-3 (BAM)
07-01-2017,13:00,13.341,R,ugm-3 (Ref.eq),20.51216,R,ugm-3,44.72812,R,ugm-3,76.17966,R,ugm-3,9.660,R,ugm-3 (BAM)
07-01-2017,14:00,16.799,R,ugm-3 (Ref.eq),11.45552,R,ugm-3,45.64803,R,ugm-3,63.21291,R,ugm-3,11.610,R,ugm-3 (BAM)
07-01-2017,15:00,15.166,R,ugm-3 (Ref.eq),42.52732,R,ugm-3,55.38313,R,ugm-3,120.59078,R,ugm-3,15.270,R,ugm-3 (BAM)
07-01-2017,16:00,19.241,R,ugm-3 (Ref.eq),42.16965,R,ugm-3,66.68314,R,ugm-3,131.34237,R,ugm-3,16.980,R,ugm-3 (BAM)
07-01-2017,17:00,14.758,R,ugm-3 (Ref.eq),49.50783,R,ugm-3,77.85309,R,ugm-3,153.76404,R,ugm-3,9.410,R,ugm-3 (BAM)
07-01-2017,18:00,16.591,R,ugm-3 (Ref.eq),84.44658,R,ugm-3,77.44478,R,ugm-3,206.92772,R,ugm-3,22.350,R,ugm-3 (BAM)
07-01-2017,19:00,13.133,R,ugm-3 (Ref.eq),53.51728,R,ugm-3,74.89302,R,ugm-3,156.95170,R,ugm-3,19.910,R,ugm-3 (BAM)
07-01-2017,20:00,14.966,R,ugm-3 (Ref.eq),27.99378,R,ugm-3,61.89137,R,ugm-3,104.81456,R,ugm-3,16.250,R,ugm-3 (BAM)
07-01-2017,21:00,11.508,R,ugm-3 (Ref.eq),18.47158,R,ugm-3,52.55741,R,ugm-3,80.88010,R,ugm-3,11.860,R,ugm-3 (BAM)
07-01-2017,22:00,13.341,R,ugm-3 (Ref.eq),11.16864,R,ugm-3,47.49263,R,ugm-3,64.61764,R,ugm-3,12.100,R,ugm-3 (BAM)
07-01-2017,23:00,14.358,R,ugm-3 (Ref.eq),23.34010,R,ugm-3,58.00517,R,ugm-3,93.79283,R,ugm-3,11.610,R,ugm-3 (BAM)
07-01-2017,24:00,11.708,R,ugm-3 (Ref.eq),20.11801,R,ugm-3,53.59877,R,ugm-3,84.44596,R,ugm-3,12.830,R,ugm-3 (BAM)
08-01-2017,01:00,11.708,R,ugm-3 (Ref.eq),16.84853,R,ugm-3,54.05554,R,ugm-3,79.88959,R,ugm-3,12.590,R,ugm-3 (BAM)
08-01-2017,02:00,10.691,R,ugm-3 (Ref.eq),12.88669,R,ugm-3,52.42226,R,ugm-3,72.18158,R,ugm-3,10.390,R,ugm-3 (BAM)
08-01-2017,03:00,9.475,R,ugm-3 (Ref.eq),9.34321,R,ugm-3,38.62150,R,ugm-3,52.94756,R,ugm-3,12.340,R,ugm-3 (BAM)
08-01-2017,04:00,14.758,R,ugm-3 (Ref.eq),24.12777,R,ugm-3,49.39557,R,ugm-3,86.39097,R,ugm-3,18.940,R,ugm-3 (BAM)
08-01-2017,05:00,11.300,R,ugm-3 (Ref.eq),24.44989,R,ugm-3,47.92916,R,ugm-3,85.41847,R,ugm-3,20.640,R,ugm-3 (BAM)
08-01-2017,06:00,13.341,R,ugm-3 (Ref.eq),0.28657,R,ugm-3,2.64021,R,ugm-3,3.07960,R,ugm-3,12.590,R,ugm-3 (BAM)
08-01-2017,07:00,8.658,R,ugm-3 (Ref.eq),0.64423,R,ugm-3,7.17044,R,ugm-3,8.15825,R,ugm-3,17.470,R,ugm-3 (BAM)
08-01-2017,08:00,8.658,R,ugm-3 (Ref.eq),6.90880,R,ugm-3,19.82450,R,ugm-3,30.41783,R,ugm-3,10.150,R,ugm-3 (BAM)
08-01-2017,09:00,14.758,R,ugm-3 (Ref.eq),3.97390,R,ugm-3,20.00236,R,ugm-3,26.09558,R,ugm-3,17.960,R,ugm-3 (BAM)
08-01-2017,10:00,14.558,R,ugm-3 (Ref.eq),14.56940,R,ugm-3,28.98728,R,ugm-3,51.32672,R,ugm-3,15.760,R,ugm-3 (BAM)
08-01-2017,11:00,9.675,R,ugm-3 (Ref.eq),26.88368,R,ugm-3,36.09318,R,ugm-3,77.31425,R,ugm-3,16.250,R,ugm-3 (BAM)
08-01-2017,12:00,16.999,R,ugm-3 (Ref.eq),24.52129,R,ugm-3,39.87754,R,ugm-3,77.47633,R,ugm-3,16.490,R,ugm-3 (BAM)
08-01-2017,13:00,13.341,R,ugm-3 (Ref.eq),9.62978,R,ugm-3,32.02290,R,ugm-3,46.78836,R,ugm-3,15.030,R,ugm-3 (BAM)
08-01-2017,14:00,8.050,R,ugm-3 (Ref.eq),10.98996,R,ugm-3,31.93636,R,ugm-3,48.78740,R,ugm-3,11.610,R,ugm-3 (BAM)
08-01-2017,15:00,9.066,R,ugm-3 (Ref.eq),10.81066,R,ugm-3,33.99421,R,ugm-3,50.57033,R,ugm-3,18.450,R,ugm-3 (BAM)
08-01-2017,16:00,8.858,R,ugm-3 (Ref.eq),14.92769,R,ugm-3,35.56963,R,ugm-3,58.45843,R,ugm-3,12.590,R,ugm-3 (BAM)
08-01-2017,17:00,9.066,R,ugm-3 (Ref.eq),19.79621,R,ugm-3,53.11969,R,ugm-3,83.47345,R,ugm-3,12.590,R,ugm-3 (BAM)
08-01-2017,18:00,12.525,R,ugm-3 (Ref.eq),31.28696,R,ugm-3,64.45986,R,ugm-3,112.43253,R,ugm-3,18.200,R,ugm-3 (BAM)
08-01-2017,19:00,13.133,R,ugm-3 (Ref.eq),24.48512,R,ugm-3,65.86650,R,ugm-3,103.40983,R,ugm-3,17.960,R,ugm-3 (BAM)
08-01-2017,20:00,8.658,R,ugm-3 (Ref.eq),11.92045,R,ugm-3,47.63655,R,ugm-3,65.91431,R,ugm-3,13.080,R,ugm-3 (BAM)
08-01-2017,21:00,22.699,R,ugm-3 (Ref.eq),7.69615,R,ugm-3,33.09677,R,ugm-3,44.89737,R,ugm-3,20.160,R,ugm-3 (BAM)
08-01-2017,22:00,8.050,R,ugm-3 (Ref.eq),4.40328,R,ugm-3,14.04923,R,ugm-3,20.80083,R,ugm-3,10.150,R,ugm-3 (BAM)
08-01-2017,23:00,22.491,R,ugm-3 (Ref.eq),2.61341,R,ugm-3,12.09322,R,ugm-3,16.10038,R,ugm-3,17.710,R,ugm-3 (BAM)
08-01-2017,24:00,8.050,R,ugm-3 (Ref.eq),1.36018,R,ugm-3,6.18072,R,ugm-3,8.26630,R,ugm-3,10.390,R,ugm-3 (BAM)
09-01-2017,01:00,7.033,R,ugm-3 (Ref.eq),1.57493,R,ugm-3,4.21260,R,ugm-3,6.62745,R,ugm-3,10.880,R,ugm-3 (BAM)
09-01-2017,02:00,6.016,R,ugm-3 (Ref.eq),1.09762,R,ugm-3,1.27054,R,ugm-3,2.95354,R,ugm-3,10.390,R,ugm-3 (BAM)
09-01-2017,03:00,8.250,R,ugm-3 (Ref.eq),0.68009,R,ugm-3,0.79417,R,ugm-3,1.83696,R,ugm-3,9.900,R,ugm-3 (BAM)
09-01-2017,04:00,13.341,R,ugm-3 (Ref.eq),1.03807,R,ugm-3,1.37987,R,ugm-3,2.97155,R,ugm-3,16.490,R,ugm-3 (BAM)
09-01-2017,05:00,15.574,R,ugm-3 (Ref.eq),1.07424,R,ugm-3,1.97274,R,ugm-3,3.61988,R,ugm-3,6.240,R,ugm-3 (BAM)
09-01-2017,06:00,18.624,R,ugm-3 (Ref.eq),2.11199,R,ugm-3,3.62323,R,ugm-3,6.86157,R,ugm-3,9.660,R,ugm-3 (BAM)
09-01-2017,07:00,18.424,R,ugm-3 (Ref.eq),3.65147,R,ugm-3,8.71861,R,ugm-3,14.31745,R,ugm-3,11.610,R,ugm-3 (BAM)
09-01-2017,08:00,23.716,R,ugm-3 (Ref.eq),10.88238,R,ugm-3,18.64831,R,ugm-3,35.33439,R,ugm-3,9.660,R,ugm-3 (BAM)
09-01-2017,09:00,19.033,R,ugm-3 (Ref.eq),12.63671,R,ugm-3,19.25409,R,ugm-3,38.63011,R,ugm-3,8.930,R,ugm-3 (BAM)
09-01-2017,10:00,21.274,R,ugm-3 (Ref.eq),15.89403,R,ugm-3,24.03869,R,ugm-3,48.40920,R,ugm-3,7.950,R,ugm-3 (BAM)
09-01-2017,11:00,19.849,R,ugm-3 (Ref.eq),7.12364,R,ugm-3,13.71406,R,ugm-3,24.63683,R,ugm-3,7.700,R,ugm-3 (BAM)
09-01-2017,12:00,9.066,R,ugm-3 (Ref.eq),7.73233,R,ugm-3,12.61868,R,ugm-3,24.47474,R,ugm-3,7.950,R,ugm-3 (BAM)
09-01-2017,13:00,8.658,R,ugm-3 (Ref.eq),7.62506,R,ugm-3,15.16039,R,ugm-3,26.85198,R,ugm-3,8.440,R,ugm-3 (BAM)
09-01-2017,14:00,12.525,R,ugm-3 (Ref.eq),3.83046,R,ugm-3,12.82044,R,ugm-3,18.69373,R,ugm-3,8.930,R,ugm-3 (BAM)
09-01-2017,15:00,18.833,R,ugm-3 (Ref.eq),7.30263,R,ugm-3,22.73245,R,ugm-3,33.92966,R,ugm-3,10.150,R,ugm-3 (BAM)
09-01-2017,16:00,16.799,R,ugm-3 (Ref.eq),10.73925,R,ugm-3,33.13119,R,ugm-3,49.59782,R,ugm-3,11.860,R,ugm-3 (BAM)
09-01-2017,17:00,18.624,R,ugm-3 (Ref.eq),20.69084,R,ugm-3,41.59066,R,ugm-3,73.31617,R,ugm-3,13.320,R,ugm-3 (BAM)
09-01-2017,18:00,13.341,R,ugm-3 (Ref.eq),7.69647,R,ugm-3,35.85173,R,ugm-3,47.65281,R,ugm-3,13.560,R,ugm-3 (BAM)
09-01-2017,19:00,16.799,R,ugm-3 (Ref.eq),7.91131,R,ugm-3,36.11661,R,ugm-3,48.24712,R,ugm-3,13.810,R,ugm-3 (BAM)
09-01-2017,20:00,17.816,R,ugm-3 (Ref.eq),9.84463,R,ugm-3,29.64040,R,ugm-3,44.73529,R,ugm-3,11.370,R,ugm-3 (BAM)
09-01-2017,21:00,11.100,R,ugm-3 (Ref.eq),4.36711,R,ugm-3,16.21178,R,ugm-3,22.90793,R,ugm-3,9.410,R,ugm-3 (BAM)
09-01-2017,22:00,17.816,R,ugm-3 (Ref.eq),2.25512,R,ugm-3,11.02174,R,ugm-3,14.47954,R,ugm-3,8.930,R,ugm-3 (BAM)